SCOUT X-1 R/B, 82

Orbit data source: Space-Track

SCOUT X-1 R/B, 82 is space debris in LEO originally from a launch on Thu, 16 Feb 1961 UTC launched from the Wallops Island (WLPIS). Debris objects in space refer to the collection of defunct objects orbiting the Earth. Examples of debris include non-operational satellites, rocket bodies, and fragments generated from explosions, collisions, or faulty payload assembly.

Loading next visibility...
SCOUT X-1 R/B details
Identifier
82, 1961-004B
Orbit
LEO
Last TLE update11 hours ago
Origin
Flag of USNASA LaRC (US)
ManufacturerABL
MissionSpacecraft
Bus & MotorALTAIR, Unknown motor
Mass53 kg wet, 24 kg dry
Launch date (UTC)
1961-02-16 (64 years ago)
Launch vehicleUnknown
Launch site
Wallops Island (WLPIS)
Object type
Payload
Rocket body
Debris
Shape & HBRCyl, 1.5 m
Radar Cross Section0.687 m², Medium (>0.1 m² and < 1m²)

Expand to show TLE details & history

TLE from 11 hours ago
0 SCOUT X-1 R/B
1 00082U 61004B   25047.55446932  .00001046  00000-0  90275-3 0  9994
2 00082  38.8570   3.1501 1166193  35.6700 331.6533 12.27452022 17112
Epoch: 2025-02-16T13:18Z
Definitive object data (Epoch: 2025-02-16T13:18:26.149Z)
Latitude0.00001°
Longitude16.7553°
Altitude773.549 km
Speed7.829 km/s
True Right ascension00h 12m 36s
True Declination0° 00' 00"
Sunlit
Object was in daylight at TLE epoch
Visualization TLE readout
Latitude-31.23032°
Longitude-33.51404°
Altitude1,514.503 km
Speed7.132 km/s
Apparent Right ascension18h 42m 53s
Apparent Declination-41° 59' 50"
Sunlit
Object is in daylight
Visualization observer readout
Local Sidereal Time03:34:03
Azimuth250.864° W
Elevation-54.742°
Doppler factor1
Orbital elements
Apogee altitude2,488.613 km
Perigee altitude636.533 km
Semi-major axis7,940.71 km
Eccentricity0.1166193
Inclination38.857°
RAAN3.1501°
Arg. of periapsis35.67°
True anomaly324.40051°
Mean anomaly331.6533°
Eccentric anomaly328.12484°
Mean motion3.06729 °/min
BSTAR0.00090275
Orbital period117.37 mins
Loading maneuver chart data...
Loading historical data...
Loading historical data...
Loading historical data...
Loading historical data...
Loading historical data...
Loading historical data...
Loading historical data...

SCOUT X-1 R/B Visibility forecast

Observer location: undefined°, undefined

Span
Click to sort rows by Start time (UTC) header in descending order
Start Az.
Max El. time (UTC)
Max El. Az.
Max El.
End time (UTC)
End Az.
9 mins2025-02-17 01:15:30.226Z232.837° WSW2025-02-17 01:19:30.226Z151.257° SSE38.007°2025-02-17 01:24:30.226Z85.202° E
11 mins2025-02-17 03:19:30.226Z265.899° W2025-02-17 03:22:30.226Z231.817° WSW44.325°2025-02-17 03:30:30.226Z94.737° ESE
14 mins2025-02-17 05:22:30.226Z269.676° W2025-02-17 05:26:30.226Z212.735° SW40.177°2025-02-17 05:36:30.226Z123.09° SE
13 mins2025-02-17 07:26:30.226Z254.633° W2025-02-17 07:31:30.226Z210.111° SW24.887°2025-02-17 07:39:30.226Z162.735° S
|